[[{"header":{"parameterUnit":"m.s-1","parameterCategory":1,"la1":30.2991,"la2":30.254,"lo1":-89.0895,"lo2":-89.0444,"dy":0.0017,"dx":0.0017,"nx":28,"ny":28,"refTime":"2024-04-27T09:00:00:Z","depth":0,"parameterNumber":2,"parameterNumberName":"U-component_of_WINDS"},"data":[0,0,0,0,0,0,0,0,0,0,0,0,0,0,0,0,0,0,0,0,0,0,0,0,0,0,0,0,0,0,0,0,0,0,0,0,0,0,0,0,0,0,0,0,0,0,0,0,0,0,0,0,0,0,0,0,0,0,-4.9867,-4.9869,0,-4.999,-4.9992,-4.9993,-4.997,-4.9968,-4.9965,-4.9963,-5.0088,-5.0093,-5.0098,0,0,0,0,0,0,0,0,0,0,0,0,0,-4.9611,-4.9616,-4.9867,-4.9869,-4.987,-4.999,-4.9992,-4.9993,-4.997,-4.9967,-4.9965,-4.9962,-5.0086,-5.0092,-5.0099,0,0,0,0,0,0,0,0,0,0,0,0,0,-4.9727,-4.9618,-4.9867,-4.9873,-4.9875,-4.999,-4.9992,-4.9994,-4.9971,-4.9967,-4.9964,-4.9961,-5.0084,-5.0092,-5.0099,-5.0215,0,0,-5.0124,-5.0128,0,0,0,0,0,0,0,0,-4.9721,-4.9737,-4.9871,-4.9873,-4.9875,-4.9961,-4.9947,-5.0068,-4.9972,-4.9934,-4.9963,-4.9959,-5.0048,-5.0059,-5.0089,-5.0221,-5.0226,-5.0125,-5.013,-5.0133,-5.0135,0,0,0,0,0,0,0,-4.9713,-4.9731,-4.9916,-4.9873,-4.9875,-4.987,-4.9882,-4.997,-5.0008,-4.9937,-4.9936,-4.9951,-5.0049,-5.0081,-5.0092,-5.0228,-5.0125,-5.0132,-5.0137,-5.014,-5.0461,-5.0464,0,0,0,0,0,0,-4.9703,-4.9725,-4.9912,-4.9919,-4.9788,-4.9877,-4.9891,-4.9937,-5.0007,-5.0015,-4.9954,-4.9949,-5.0069,-5.0083,-5.0096,-5.0235,-5.0133,-5.0141,-5.0145,-5.0457,-5.0461,-5.0465,0,0,0,0,0,0,-4.9697,-4.972,-4.9907,-4.9822,-4.9845,-4.9885,-4.9936,-4.9941,-4.9974,-5.0019,-5.0026,-4.998,-5.0067,-5.0085,-5.0186,-5.0239,-5.0144,-5.0152,-5.0453,-5.0458,-5.0463,-5.0515,0,0,0,0,0,0,-4.969,-4.9718,-4.9762,-4.9823,-4.985,-4.9995,-4.994,-4.9946,-4.9988,-4.9983,-5.0046,-5.0053,-5.0066,-5.0174,-5.0194,-5.0248,-5.0158,-5.0448,-5.0455,-5.0462,-5.0508,-5.0521,-5.0532,0,0,0,0,0,-4.9681,-4.9772,-4.9765,-4.9787,-4.9906,-4.9998,-5.0013,-5.0026,-4.9992,-5.0037,-5.0067,-5.0051,-5.0231,-5.0184,-5.0207,-5.0264,-5.0445,-5.0453,-5.0461,-5.0503,-5.0519,-5.0532,0,0,0,0,0,0,-4.9715,-4.9779,-4.9772,-4.9885,-4.9937,-4.9994,-5.005,-5.0043,-5.0104,-5.0097,-5.0111,-5.0125,-5.0228,-5.0257,-5.0204,-5.038,-5.0333,-5.0346,-5.0357,-5.0372,-5.0384,-5.0374,-5.0164,0,0,0,0,0,-4.9736,-4.9806,-4.9858,-4.9952,-4.9979,-5.001,-5.0051,-5.0057,-5.011,-5.0131,-5.0168,-5.022,-5.0288,-5.0332,-5.0397,-5.0513,-5.0526,-5.0564,-5.0576,-5.0586,-5.0596,-5.0659,-5.0676,-5.0493,-5.0493,-5.0493,0,0,-4.9779,-4.9823,-4.9866,-4.9961,-5.0001,-5.0071,-5.0028,-5.0105,-5.0158,-5.0143,-5.0239,-5.0269,-5.0328,-5.0436,-5.0486,-5.0464,-5.065,-5.0597,-5.0604,-5.0609,-5.0669,-5.0687,-5.0702,-5.0498,-5.0497,-5.0496,0,0,-4.9894,-4.9935,-5.0018,-5.0059,-5.0121,-5.0142,-5.0162,-5.0221,-5.024,-5.0338,-5.0328,-5.0391,-5.0508,-5.055,-5.0586,-5.0719,-5.0707,-5.074,-5.0802,-5.0863,-5.0877,-5.089,-5.0935,-5.0952,-5.0751,-5.0751,-5.0751,0,-4.994,-5.0046,-5.0061,-5.0139,-5.0181,-5.0172,-5.0255,-5.0295,-5.0374,-5.0403,-5.0377,-5.0524,-5.0563,-5.0681,-5.0714,-5.0744,-5.0767,-5.0731,-5.0874,-5.0887,-5.0899,-5.0943,-5.096,-5.0755,-5.0754,-5.0754,-5.0753,0,-5.0099,-5.0173,-5.0233,-5.031,-5.0359,-5.0439,-5.0466,-5.0513,-5.0516,-5.054,-5.0639,-5.0687,-5.0761,-5.079,-5.0793,-5.0909,-5.0892,-5.0871,-5.0823,-5.092,-5.0961,-5.0978,-5.076,-5.0758,-5.0757,-5.0756,0,0,-5.0236,-5.0322,-5.0343,-5.0378,-5.0446,-5.0504,-5.0584,-5.0657,-5.0697,-5.0753,-5.082,-5.092,-5.0901,-5.0942,-5.0951,-5.1005,-5.1105,-5.0976,-5.0977,-5.0996,-5.1233,-5.1248,-5.1267,-5.1098,-5.1102,-5.1104,-5.1228,0,-5.0355,-5.0497,-5.0513,-5.0639,-5.0707,-5.07,-5.077,-5.0819,-5.0844,-5.0906,-5.0933,-5.1003,-5.0973,-5.0998,-5.1051,-5.1081,-5.1152,-5.1073,-5.1159,-5.1162,-5.1142,-5.1289,-5.1304,-5.1418,-5.1244,-5.1247,-5.1249,0,-5.0513,-5.0573,-5.0706,-5.0765,-5.0794,-5.0857,-5.0925,-5.0984,-5.104,-5.1055,-5.1102,-5.1104,-5.1186,-5.1138,-5.1251,-5.1197,-5.1234,-5.1254,-5.1259,-5.1265,-5.1209,-5.1297,-5.1455,-5.1471,-5.1275,-5.1273,-5.1271,0,-5.0597,-5.0712,-5.0806,-5.0837,-5.0908,-5.0952,-5.0984,-5.1037,-5.108,-5.114,-5.1168,-5.1237,-5.1274,-5.1328,-5.1348,-5.1311,-5.146,-5.1413,-5.1473,-5.1472,-5.1502,-5.1499,-5.1666,-5.153,-5.153,-5.1529,-5.1529,0,-5.0727,-5.0808,-5.0845,-5.0902,-5.0993,-5.1011,-5.11,-5.113,-5.1178,-5.1241,-5.124,-5.1299,-5.1323,-5.1386,-5.1403,-5.1494,-5.1511,-5.1524,-5.1527,-5.1523,-5.1521,-5.1545,-5.1537,-5.1534,-5.1533,-5.1532,-5.1531,0,-5.0835,-5.0863,-5.0965,-5.1025,-5.1042,-5.1106,-5.1156,-5.1212,-5.1237,-5.1317,-5.1337,-5.1375,-5.145,-5.1476,-5.1566,-5.1577,-5.1682,-5.168,-5.1663,-5.1663,-5.172,-5.1714,-5.1906,-5.1932,-5.1781,-5.1783,-5.1784,0,-5.0914,-5.0976,-5.1043,-5.1086,-5.1119,-5.1187,-5.1231,-5.1253,-5.1298,-5.1368,-5.1415,-5.1489,-5.1549,-5.1668,-5.1704,-5.1773,-5.1771,-5.1834,-5.1781,-5.1774,-5.1769,-5.1764,-5.177,-5.1842,-5.1844,-5.1845,-5.1846,0,-5.1052,-5.1064,-5.1127,-5.1196,-5.1249,-5.1304,-5.1358,-5.1393,-5.1422,-5.1474,-5.155,-5.1596,-5.1689,-5.1762,-5.1833,-5.1865,-5.186,-5.1863,-5.188,-5.1875,-5.1862,-5.1868,-5.1687,-5.1858,-5.1856,-5.1856,-5.1855,-5.1854,-5.1147,-5.1202,-5.1257,-5.1328,-5.1371,-5.1421,-5.1476,-5.1509,-5.1573,-5.1649,-5.1658,-5.174,-5.1795,-5.189,-5.1926,-5.199,-5.1972,-5.1998,-5.2004,-5.2009,-5.2012,-5.1854,-5.2003,-5.2003,-5.2003,-5.2002,-5.2002,0,-5.1283,-5.1319,-5.1385,-5.1459,-5.1515,-5.1508,-5.1567,-5.1614,-5.1686,-5.1738,-5.1797,-5.1884,-5.1956,-5.1998,-5.207,-5.2113,-5.2112,-5.213,-5.2126,-5.2133,-5.2025,-5.2002,-5.213,-5.213,-5.213,-5.2129,-5.2129,-5.2129,-5.1361,-5.1452,-5.147,-5.1583,-5.1618,-5.1698,-5.1733,-5.1779,-5.182,-5.1918,-5.1977,-5.2005,-5.2053,-5.2128,-5.2193,-5.2204,-5.2229,-5.2249,-5.2258,-5.2154,-5.2141,-5.2129,-5.2107,-5.2255,-5.2255,-5.2361,-5.2362,-5.2363]},{"header":{"parameterUnit":"m.s-1","parameterCategory":1,"la1":30.2991,"la2":30.254,"lo1":-89.0895,"lo2":-89.0444,"dy":0.0017,"dx":0.0017,"nx":28,"ny":28,"refTime":"2024-04-27T09:00:00:Z","depth":0,"parameterNumber":3,"parameterNumberName":"V-component_of_WINDS"},"data":[0,0,0,0,0,0,0,0,0,0,0,0,0,0,0,0,0,0,0,0,0,0,0,0,0,0,0,0,0,0,0,0,0,0,0,0,0,0,0,0,0,0,0,0,0,0,0,0,0,0,0,0,0,0,0,0,0,0,4.6295,4.6295,0,4.6341,4.6342,4.6342,4.6293,4.6291,4.629,4.6288,4.6331,4.6334,4.6336,0,0,0,0,0,0,0,0,0,0,0,0,0,4.616,4.6163,4.6295,4.6296,4.6296,4.6341,4.6342,4.6342,4.6294,4.6291,4.6289,4.6287,4.633,4.6333,4.6337,0,0,0,0,0,0,0,0,0,0,0,0,0,4.6214,4.6164,4.6295,4.6277,4.6276,4.6341,4.6342,4.6343,4.6294,4.6291,4.6288,4.6286,4.6329,4.6333,4.6337,4.642,0,0,4.6351,4.6352,0,0,0,0,0,0,0,0,4.6211,4.6219,4.6279,4.6279,4.6277,4.6309,4.631,4.6369,4.6295,4.6287,4.6288,4.6284,4.6325,4.633,4.6345,4.6422,4.6424,4.6351,4.6354,4.6355,4.6357,0,0,0,0,0,0,0,4.6207,4.6216,4.6313,4.628,4.6279,4.6266,4.627,4.6321,4.6321,4.6288,4.6284,4.6291,4.6324,4.6341,4.6345,4.6425,4.6351,4.6355,4.6357,4.6359,4.6573,4.6576,0,0,0,0,0,0,4.6206,4.6214,4.6312,4.6314,4.6237,4.627,4.6275,4.6301,4.6321,4.6321,4.6293,4.6288,4.6335,4.634,4.6347,4.6445,4.6355,4.6359,4.6362,4.657,4.6574,4.6577,0,0,0,0,0,0,4.6203,4.6215,4.631,4.6263,4.6274,4.6276,4.6305,4.6304,4.632,4.6325,4.6324,4.631,4.6333,4.634,4.6403,4.6446,4.6361,4.6365,4.6566,4.6571,4.6575,4.6643,0,0,0,0,0,0,4.6199,4.6214,4.6247,4.6264,4.6277,4.6366,4.6308,4.6307,4.6328,4.6322,4.634,4.6341,4.6331,4.6396,4.6407,4.645,4.6369,4.6562,4.6568,4.6574,4.6637,4.6649,4.666,0,0,0,0,0,4.6195,4.6263,4.6249,4.6261,4.6318,4.6369,4.6376,4.6365,4.6332,4.6364,4.6367,4.634,4.644,4.6403,4.6415,4.646,4.656,4.6567,4.6573,4.6631,4.6647,4.6659,0,0,0,0,0,0,4.6249,4.6265,4.6249,4.6326,4.6347,4.6361,4.6401,4.6381,4.6411,4.6404,4.6387,4.6392,4.6458,4.6465,4.6424,4.6541,4.6494,4.6504,4.6534,4.6549,4.656,4.6556,4.6372,0,0,0,0,0,4.627,4.6312,4.6323,4.6389,4.64,4.6399,4.6421,4.6411,4.6431,4.6439,4.6447,4.6467,4.6502,4.6526,4.6559,4.6638,4.664,4.6674,4.6686,4.6695,4.6703,4.6745,4.676,4.66,4.66,4.66,0,0,4.6313,4.6327,4.6354,4.64,4.6415,4.6457,4.6407,4.6453,4.6484,4.6446,4.6505,4.6512,4.6533,4.6604,4.6635,4.6611,4.6749,4.6704,4.6712,4.6715,4.6754,4.6769,4.6783,4.6604,4.6604,4.6603,0,0,4.6413,4.6429,4.6486,4.6502,4.6526,4.6525,4.6539,4.6557,4.656,4.662,4.6592,4.6628,4.669,4.6706,4.6722,4.683,4.6805,4.6841,4.69,4.6941,4.6954,4.6965,4.7003,4.7017,4.6849,4.6849,4.6849,0,4.6464,4.6528,4.6517,4.6566,4.6587,4.6556,4.6612,4.6629,4.6662,4.6676,4.665,4.6727,4.6739,4.6813,4.684,4.6854,4.6868,4.6838,4.6954,4.6965,4.6975,4.701,4.7025,4.6853,4.6853,4.6852,4.6852,0,4.6588,4.6633,4.6676,4.671,4.6736,4.6788,4.6784,4.6811,4.6799,4.68,4.6861,4.6875,4.691,4.6927,4.6915,4.7,4.6984,4.6956,4.6908,4.6994,4.7028,4.7041,4.6859,4.6858,4.6856,4.6855,0,0,4.6722,4.6752,4.6767,4.6783,4.6808,4.6841,4.6892,4.6928,4.6952,4.6976,4.7017,4.7071,4.7045,4.7064,4.7053,4.709,4.7173,4.7057,4.7057,4.7077,4.7267,4.7287,4.7304,4.7158,4.7161,4.7163,4.7265,0,4.6823,4.6913,4.6905,4.699,4.7031,4.7003,4.7047,4.7066,4.7069,4.7103,4.7105,4.7144,4.7107,4.7118,4.7153,4.7156,4.7211,4.7149,4.7195,4.7197,4.719,4.7321,4.7343,4.7438,4.7278,4.728,4.7282,0,4.6952,4.6983,4.7072,4.7091,4.7108,4.7148,4.7181,4.7214,4.7235,4.7235,4.7256,4.724,4.729,4.7242,4.731,4.7268,4.7287,4.7291,4.7295,4.7298,4.7244,4.7327,4.7469,4.7483,4.7302,4.7301,4.7299,0,4.7041,4.7104,4.7166,4.718,4.7204,4.7233,4.7244,4.7262,4.7285,4.7313,4.7327,4.736,4.7378,4.7403,4.7396,4.7362,4.7466,4.7417,4.7465,4.7466,4.7488,4.7486,4.7634,4.7501,4.7501,4.7501,4.7501,0,4.7153,4.7209,4.7206,4.7244,4.7305,4.7295,4.7355,4.7362,4.738,4.7417,4.7395,4.743,4.7419,4.7453,4.7448,4.7505,4.7513,4.7513,4.7511,4.7515,4.7515,4.7526,4.7519,4.7505,4.7504,4.7503,4.7503,0,4.7262,4.7262,4.7328,4.7346,4.7352,4.7396,4.741,4.7445,4.7447,4.7495,4.7506,4.7508,4.7547,4.7543,4.7587,4.7583,4.7654,4.7644,4.7647,4.7645,4.7693,4.7689,4.7852,4.7873,4.7728,4.773,4.7731,0,4.7334,4.7376,4.7399,4.7424,4.7437,4.7477,4.75,4.7492,4.7516,4.7544,4.7576,4.7614,4.7644,4.7709,4.7713,4.7747,4.7737,4.7792,4.7742,4.7745,4.7737,4.7734,4.7738,4.7802,4.7803,4.7805,4.7806,0,4.746,4.7459,4.7494,4.753,4.7558,4.7586,4.761,4.7631,4.7625,4.7654,4.7695,4.7719,4.7765,4.7803,4.7835,4.7844,4.7824,4.7822,4.7835,4.7839,4.7839,4.7839,4.7674,4.7818,4.7817,4.7816,4.7815,4.7815,4.7552,4.7589,4.7611,4.7651,4.7669,4.7693,4.7727,4.7733,4.7768,4.7806,4.7798,4.7845,4.7865,4.7906,4.7919,4.7954,4.7934,4.7953,4.7957,4.7962,4.7968,4.7834,4.796,4.796,4.7959,4.7959,4.7959,0,4.7677,4.7691,4.7728,4.7764,4.7795,4.7775,4.7801,4.7828,4.787,4.7891,4.7922,4.7969,4.8006,4.8014,4.8049,4.8076,4.8067,4.8085,4.8082,4.8085,4.7984,4.7969,4.8091,4.8091,4.8091,4.8091,4.8091,4.8091,4.7746,4.7807,4.7808,4.7877,4.7889,4.7936,4.7953,4.7974,4.7991,4.8045,4.8076,4.8082,4.8097,4.8134,4.8166,4.8167,4.8181,4.8202,4.82,4.8105,4.8092,4.8079,4.8065,4.8206,4.8206,4.8298,4.8299,4.8299]}]]